Regional Weather Roundup
Issued by NWS Albany, NY

Home | Current Version | Previous Version | Text Only | Print | Product List | Glossary On
Versions: 1 2 3 4 5 6 7 8 9 10 11 12 13 14 15 16 17 18 19 20 21 22 23 24 25 26 27
000
ASUS41 KALY 161810
RWRALY

NEW YORK STATE HOURLY WEATHER ROUNDUP
NATIONAL WEATHER SERVICE ALBANY NY
200 PM EDT MON OCT 16 2017

NOTE: "FAIR" INDICATES FEW OR NO CLOUDS BELOW 12,000 FEET WITH NO
SIGNIFICANT WEATHER AND/OR NO OBSTRUCTIONS TO VISIBILITY.

NYZ032-033-038>043-046>054-057>066-NYZ062>081-082-084-161900-
EAST


CITY           SKY/WX    TMP DP  RH WIND       PRES   REMARKS
ALBANY         CLOUDY    51  37  58 W18       30.05F
GLENS FALLS    CLOUDY    53  34  48 N8        30.03F
POUGHKEEPSIE   PTSUNNY   54  39  57 N9        30.02S
NEWBURGH       PTSUNNY   54  43  66 NW12G17   30.03F
MONTGOMERY     CLOUDY    55  40  56 NW12G23   30.02F
WHITE PLAINS   CLOUDY    57  40  52 NW14      29.99S
ISLIP          CLOUDY    58  44  60 N15G25    29.98S
NEW YORK CITY  CLOUDY    58  41  53 NW20      30.01R
CENTRAL PARK   CLOUDY    57  41  55 MISG      30.03S
$$

NYZ005>009-017-018-044>046-055-056-161900-
CENTRAL


CITY           SKY/WX    TMP DP  RH WIND       PRES   REMARKS
FULTON         LGT RAIN  46  39  76 NW12G20   30.16R
SYRACUSE       NOT AVBL
ROME           CLOUDY    49  36  61 NW13      30.12F
ELMIRA         CLOUDY    51  35  54 N7G23     30.13F
BINGHAMTON     PTSUNNY   43  38  82 NW10      30.10S
MONTICELLO     CLOUDY    47  37  68 NW16G24   30.06S
$$

NYZ026>034-041>043-087-161900-
NORTH


CITY           SKY/WX    TMP DP  RH WIND       PRES   REMARKS
WATERTOWN      CLOUDY    47  34  60 N5        30.15S
FORT DRUM      NOT AVBL
OGDENSBURG     PTSUNNY   46  34  62 NW7       30.13S
MASSENA        CLOUDY    47  35  63 W8        30.13F
SARANAC LAKE   LGT RAIN  38  34  85 N7        30.06S WCI  33
PLATTSBURGH    CLOUDY    45  31  58 NW14G20   30.09S
$$

NYZ001>004-010>016-019>021-085-161900-
WEST


CITY           SKY/WX    TMP DP  RH WIND       PRES   REMARKS
NIAGARA FALLS  PTSUNNY   50  30  46 NW12      30.21F
BUFFALO        PTSUNNY   49  34  56 NW12      30.20F
DUNKIRK        MOSUNNY   48  34  58 W12       30.23F
JAMESTOWN      PTSUNNY   46  33  60 W16G23    30.20F
WELLSVILLE     PTSUNNY   47  30  51 N17G23    30.15S
ROCHESTER      PTSUNNY   47  34  60 NW14      30.18F
$$

             KEY
       WCI = WIND CHILL INDEX
       VSB = VISIBILITY
       HX  = HEAT INDEX
$$




USA.gov is the U.S. government's official web portal to all federal, state and local government web resources and services.